Talkeetna, AK

2:27 PM AKST on January 20, 2018 (GMT -0900)
Talkeetna

Weather History for PATK - August, 2014

Change the Weather History Date:

Thursday, August 28, 2014

  Actual Average Record
Temperature  
Mean Temperature 52 °F -  
Max Temperature 57 °F 63 °F 78 °F (2016)
Min Temperature 48 °F 42 °F 28 °F (2015)
Degree Days  
Heating Degree Days 12    
Growing Degree Days 2 (Base 50)    
Moisture  
Dew Point 49 °F    
Average Humidity 88    
Maximum Humidity 93    
Minimum Humidity 77    
Precipitation  
Precipitation 0.28 in - - ()
Sea Level Pressure  
Sea Level Pressure 29.69 in    
Wind  
Wind Speed 2 mph (North)    
Max Wind Speed 6 mph    
Max Gust Speed -    
Visibility 9 miles    
Events Rain    
Averages and records for this station are not official NWS values.
T = Trace of Precipitation, MM = Missing Value Source: NWS Daily Summary

Daily Weather History Graph

Daily Weather History Graph

Search for Another Location

Airport or City:

Trip Planner

Search our weather history database for the weather conditions in past years. The results will help you decide how hot, cold, wet, or windy it might be!

Date:

Astronomy

Aug. 28, 2014 Rise Set
Actual Time 6:38 AM AKDT 9:22 PM AKDT
Civil Twilight 5:47 AM AKDT 10:12 PM AKDT
Nautical Twilight 4:37 AM AKDT 11:21 PM AKDT
Astronomical Twilight 2:10 AM AKDT 1:24 AM AKDT
Moon 10:48 AM AKDT (8/28) 9:37 PM AKDT (8/28)
Length of Visible Light 16h 24m
Length of Day
14h 43m
Waxing Crescent, 9% of the Moon is Illuminated
Aug 28
Waxing Crescent
Sep 2
First Quarter
Sep 8
Full
Sep 15
Last Quarter
Sep 23
New

Hourly Weather History & Observations

Time (AKDT) Temp. Dew Point Humidity Pressure Visibility Wind Dir Wind Speed Gust Speed Precip Events Conditions
12:53 AM 51.1 °F 48.9 °F 92% 29.77 in 10.0 mi Calm Calm - N/A   Overcast
1:53 AM 51.1 °F 48.0 °F 89% 29.77 in 10.0 mi North 3.5 mph - N/A   Overcast
2:53 AM 50.0 °F 48.0 °F 93% 29.76 in 10.0 mi Calm Calm - N/A   Mostly Cloudy
3:53 AM 50.0 °F 46.9 °F 89% 29.75 in 10.0 mi North 3.5 mph - 0.00 in   Overcast
4:53 AM 50.0 °F 48.0 °F 93% 29.73 in 10.0 mi NNE 4.6 mph - N/A   Overcast
5:53 AM 50.0 °F 48.0 °F 93% 29.73 in 10.0 mi Calm Calm - 0.00 in Rain Light Rain
6:53 AM 50.0 °F 48.0 °F 93% 29.72 in 10.0 mi NNW 4.6 mph - 0.00 in   Overcast
7:53 AM 50.0 °F 48.0 °F 93% 29.71 in 10.0 mi Calm Calm - 0.00 in   Overcast
8:53 AM 51.1 °F 48.0 °F 89% 29.71 in 10.0 mi Calm Calm - N/A   Overcast
9:53 AM 52.0 °F 48.0 °F 86% 29.70 in 10.0 mi NNW 3.5 mph - 0.00 in Rain Light Rain
10:53 AM 54.0 °F 48.9 °F 83% 29.70 in 10.0 mi NW 4.6 mph - 0.00 in   Overcast
11:53 AM 55.9 °F 48.9 °F 77% 29.69 in 10.0 mi NNW 3.5 mph - 0.00 in Rain Light Rain
12:53 PM 55.0 °F 50.0 °F 83% 29.69 in 10.0 mi WNW 4.6 mph - 0.00 in Rain Light Rain
1:53 PM 57.0 °F 50.0 °F 77% 29.67 in 10.0 mi North 4.6 mph - 0.01 in Rain Light Rain
2:53 PM 57.0 °F 50.0 °F 77% 29.67 in 10.0 mi Variable 3.5 mph - 0.00 in Rain Light Rain
3:53 PM 55.0 °F 51.1 °F 86% 29.66 in 10.0 mi West 5.8 mph - 0.01 in Rain Light Rain
4:53 PM 55.0 °F 51.1 °F 86% 29.66 in 7.0 mi NW 3.5 mph - 0.03 in Rain Light Rain
5:53 PM 54.0 °F 51.1 °F 90% 29.66 in 7.0 mi North 3.5 mph - 0.04 in Rain Light Rain
6:53 PM 54.0 °F 50.0 °F 86% 29.66 in 7.0 mi Calm Calm - 0.02 in Rain Light Rain
7:17 PM 53.1 °F 51.1 °F 93% 29.65 in 7.0 mi Calm Calm - 0.03 in Rain Light Rain
7:53 PM 52.0 °F 48.9 °F 89% 29.65 in 4.0 mi NE 4.6 mph - 0.06 in Rain Rain
8:00 PM 52.0 °F 48.9 °F 89% 29.65 in 5.0 mi NE 4.6 mph - 0.01 in Rain Light Rain
8:53 PM 51.1 °F 48.9 °F 92% 29.65 in 7.0 mi Calm Calm - 0.06 in Rain Rain
9:53 PM 50.0 °F 48.0 °F 93% 29.65 in 7.0 mi Calm Calm - 0.07 in Rain Light Rain
10:53 PM 50.0 °F 48.0 °F 93% 29.64 in 7.0 mi NE 3.5 mph - 0.07 in Rain Light Rain
11:53 PM 50.0 °F 46.9 °F 89% 29.64 in 8.0 mi NE 3.5 mph - 0.04 in Rain Rain